Data supplied by UK-AIR on 25/3/2021
All Data GMT hour ending 
Status: R =Ratified P=Provisional,P*=As supplied
,,Burton-on-Trent Horninglow,,,,,,,,,,,,,,,,,,,,,,,
Date,time,"Nitric oxide",status,unit,"Nitrogen dioxide",status,unit,"Nitrogen oxides as nitrogen dioxide",status,unit
 
01-01-2020,01:00,1.94092,R,ugm-3,16.28326,R,ugm-3,19.25929,R,ugm-3
01-01-2020,02:00,1.43258,R,ugm-3,12.08797,R,ugm-3,14.28456,R,ugm-3
01-01-2020,03:00,0.51989,R,ugm-3,9.70307,R,ugm-3,10.50022,R,ugm-3
01-01-2020,04:00,0.79716,R,ugm-3,10.98354,R,ugm-3,12.20584,R,ugm-3
01-01-2020,05:00,0.79716,R,ugm-3,16.52681,R,ugm-3,17.74910,R,ugm-3
01-01-2020,06:00,5.96138,R,ugm-3,28.70277,R,ugm-3,37.84343,R,ugm-3
01-01-2020,07:00,20.48359,R,ugm-3,26.63663,R,ugm-3,58.04436,R,ugm-3
01-01-2020,08:00,43.04674,R,ugm-3,23.48765,R,ugm-3,89.49172,R,ugm-3
01-01-2020,09:00,42.70014,R,ugm-3,24.23228,R,ugm-3,89.70492,R,ugm-3
01-01-2020,10:00,34.41659,R,ugm-3,25.15412,R,ugm-3,77.92549,R,ugm-3
01-01-2020,11:00,16.15119,R,ugm-3,22.61943,R,ugm-3,47.38424,R,ugm-3
01-01-2020,12:00,7.45173,R,ugm-3,21.88705,R,ugm-3,33.31288,R,ugm-3
01-01-2020,13:00,5.40684,R,ugm-3,23.95650,R,ugm-3,32.24687,R,ugm-3
01-01-2020,14:00,5.92672,R,ugm-3,23.10605,R,ugm-3,32.19357,R,ugm-3
01-01-2020,15:00,4.95627,R,ugm-3,25.50018,R,ugm-3,33.09968,R,ugm-3
01-01-2020,16:00,4.33240,R,ugm-3,28.05577,R,ugm-3,34.69870,R,ugm-3
01-01-2020,17:00,2.21819,R,ugm-3,24.36844,R,ugm-3,27.76962,R,ugm-3
01-01-2020,18:00,2.18353,R,ugm-3,27.45972,R,ugm-3,30.80775,R,ugm-3
01-01-2020,19:00,2.39149,R,ugm-3,24.74233,R,ugm-3,28.40922,R,ugm-3
01-01-2020,20:00,1.38637,R,ugm-3,21.75294,R,ugm-3,23.87867,R,ugm-3
01-01-2020,21:00,1.28239,R,ugm-3,17.00871,R,ugm-3,18.97502,R,ugm-3
01-01-2020,22:00,1.10909,R,ugm-3,16.20842,R,ugm-3,17.90900,R,ugm-3
01-01-2020,23:00,1.03978,R,ugm-3,14.02278,R,ugm-3,15.61708,R,ugm-3
01-01-2020,24:00,1.38637,R,ugm-3,13.11824,R,ugm-3,15.24397,R,ugm-3
02-01-2020,01:00,1.57174,R,ugm-3,12.94263,R,ugm-3,15.35260,R,ugm-3
02-01-2020,02:00,0.36982,R,ugm-3,8.81509,R,ugm-3,9.38215,R,ugm-3
02-01-2020,03:00,0.58940,R,ugm-3,5.86633,R,ugm-3,6.77007,R,ugm-3
02-01-2020,04:00,1.38683,R,ugm-3,6.29616,R,ugm-3,8.42261,R,ugm-3
02-01-2020,05:00,1.10947,R,ugm-3,6.18837,R,ugm-3,7.88953,R,ugm-3
02-01-2020,06:00,0.76276,R,ugm-3,7.35968,R,ugm-3,8.52922,R,ugm-3
02-01-2020,07:00,0.79743,R,ugm-3,9.59875,R,ugm-3,10.82145,R,ugm-3
02-01-2020,08:00,0.79743,R,ugm-3,10.13182,R,ugm-3,11.35453,R,ugm-3
02-01-2020,09:00,1.24815,R,ugm-3,16.90380,R,ugm-3,18.81760,R,ugm-3
02-01-2020,10:00,1.94157,R,ugm-3,13.06858,R,ugm-3,16.04560,R,ugm-3
02-01-2020,11:00,2.08025,R,ugm-3,10.03063,R,ugm-3,13.22030,R,ugm-3
02-01-2020,12:00,1.87222,R,ugm-3,12.26867,R,ugm-3,15.13937,R,ugm-3
02-01-2020,13:00,1.97624,R,ugm-3,15.46757,R,ugm-3,18.49775,R,ugm-3
02-01-2020,14:00,1.66420,R,ugm-3,14.02694,R,ugm-3,16.57868,R,ugm-3
02-01-2020,15:00,2.46163,R,ugm-3,16.58908,R,ugm-3,20.36352,R,ugm-3
02-01-2020,16:00,1.59486,R,ugm-3,17.01188,R,ugm-3,19.45729,R,ugm-3
02-01-2020,17:00,1.80288,R,ugm-3,17.86568,R,ugm-3,20.63006,R,ugm-3
02-01-2020,18:00,1.14414,R,ugm-3,17.32982,R,ugm-3,19.08414,R,ugm-3
02-01-2020,19:00,0.97078,R,ugm-3,17.54232,R,ugm-3,19.03083,R,ugm-3
02-01-2020,20:00,0.90144,R,ugm-3,14.39687,R,ugm-3,15.77906,R,ugm-3
02-01-2020,21:00,0.79743,R,ugm-3,13.59682,R,ugm-3,14.81953,R,ugm-3
02-01-2020,22:00,1.24815,R,ugm-3,14.77149,R,ugm-3,16.68530,R,ugm-3
02-01-2020,23:00,1.00545,R,ugm-3,12.63816,R,ugm-3,14.17984,R,ugm-3
02-01-2020,24:00,0.83210,R,ugm-3,8.95920,R,ugm-3,10.23507,R,ugm-3
03-01-2020,01:00,0.78614,R,ugm-3,7.89365,R,ugm-3,9.09904,R,ugm-3
03-01-2020,02:00,0.36995,R,ugm-3,7.46551,R,ugm-3,8.03275,R,ugm-3
03-01-2020,03:00,0.65897,R,ugm-3,16.69008,R,ugm-3,17.70048,R,ugm-3
03-01-2020,04:00,1.28325,R,ugm-3,14.08010,R,ugm-3,16.04772,R,ugm-3
03-01-2020,05:00,0.90174,R,ugm-3,16.90429,R,ugm-3,18.28694,R,ugm-3
03-01-2020,06:00,1.04047,R,ugm-3,6.50846,R,ugm-3,8.10383,R,ugm-3
03-01-2020,07:00,1.24857,R,ugm-3,8.00209,R,ugm-3,9.91653,R,ugm-3
03-01-2020,08:00,2.11563,R,ugm-3,14.40325,R,ugm-3,17.64716,R,ugm-3
03-01-2020,09:00,2.01158,R,ugm-3,14.56278,R,ugm-3,17.64716,R,ugm-3
03-01-2020,10:00,2.11563,R,ugm-3,15.25628,R,ugm-3,18.50020,R,ugm-3
03-01-2020,11:00,3.08674,R,ugm-3,17.07278,R,ugm-3,21.80571,R,ugm-3
03-01-2020,12:00,3.50292,R,ugm-3,16.32800,R,ugm-3,21.69908,R,ugm-3
03-01-2020,13:00,3.43356,R,ugm-3,15.63464,R,ugm-3,20.89936,R,ugm-3
03-01-2020,14:00,3.46824,R,ugm-3,21.76597,R,ugm-3,27.08386,R,ugm-3
03-01-2020,15:00,2.56650,R,ugm-3,18.56356,R,ugm-3,22.49880,R,ugm-3
03-01-2020,16:00,2.35841,R,ugm-3,21.81494,R,ugm-3,25.43111,R,ugm-3
03-01-2020,17:00,1.90753,R,ugm-3,16.16182,R,ugm-3,19.08666,R,ugm-3
03-01-2020,18:00,2.28904,R,ugm-3,24.69366,R,ugm-3,28.20347,R,ugm-3
03-01-2020,19:00,2.39309,R,ugm-3,28.53272,R,ugm-3,32.20207,R,ugm-3
03-01-2020,20:00,1.83817,R,ugm-3,20.95987,R,ugm-3,23.77835,R,ugm-3
03-01-2020,21:00,1.24857,R,ugm-3,12.48052,R,ugm-3,14.39497,R,ugm-3
03-01-2020,22:00,0.79770,R,ugm-3,6.98735,R,ugm-3,8.21046,R,ugm-3
03-01-2020,23:00,0.86706,R,ugm-3,5.70807,R,ugm-3,7.03754,R,ugm-3
03-01-2020,24:00,0.93643,R,ugm-3,7.94755,R,ugm-3,9.38339,R,ugm-3
04-01-2020,01:00,0.83266,R,ugm-3,3.62888,R,ugm-3,4.90560,R,ugm-3
04-01-2020,02:00,0.60136,R,ugm-3,2.34832,R,ugm-3,3.27040,R,ugm-3
04-01-2020,03:00,0.76327,R,ugm-3,2.29558,R,ugm-3,3.46591,R,ugm-3
04-01-2020,04:00,0.48572,R,ugm-3,2.02798,R,ugm-3,2.77273,R,ugm-3
04-01-2020,05:00,0.55511,R,ugm-3,1.86826,R,ugm-3,2.71941,R,ugm-3
04-01-2020,06:00,0.55511,R,ugm-3,2.50812,R,ugm-3,3.35927,R,ugm-3
04-01-2020,07:00,0.76327,R,ugm-3,5.06831,R,ugm-3,6.23864,R,ugm-3
04-01-2020,08:00,0.79796,R,ugm-3,8.74764,R,ugm-3,9.97116,R,ugm-3
04-01-2020,09:00,0.90205,R,ugm-3,11.14749,R,ugm-3,12.53061,R,ugm-3
04-01-2020,10:00,1.76940,R,ugm-3,16.90936,R,ugm-3,19.62240,R,ugm-3
04-01-2020,11:00,2.67144,R,ugm-3,20.69845,R,ugm-3,24.79460,R,ugm-3
04-01-2020,12:00,2.81022,R,ugm-3,18.72605,R,ugm-3,23.03499,R,ugm-3
04-01-2020,13:00,2.25511,R,ugm-3,14.03174,R,ugm-3,17.48953,R,ugm-3
04-01-2020,14:00,2.04695,R,ugm-3,16.16386,R,ugm-3,19.30247,R,ugm-3
04-01-2020,15:00,2.49797,R,ugm-3,17.76513,R,ugm-3,21.59530,R,ugm-3
04-01-2020,16:00,2.08164,R,ugm-3,18.61678,R,ugm-3,21.80859,R,ugm-3
04-01-2020,17:00,1.63062,R,ugm-3,17.92197,R,ugm-3,20.42222,R,ugm-3
04-01-2020,18:00,1.42246,R,ugm-3,16.48154,R,ugm-3,18.66261,R,ugm-3
04-01-2020,19:00,1.31837,R,ugm-3,20.05372,R,ugm-3,22.07520,R,ugm-3
04-01-2020,20:00,1.04082,R,ugm-3,19.46618,R,ugm-3,21.06208,R,ugm-3
04-01-2020,21:00,1.83878,R,ugm-3,28.58707,R,ugm-3,31.40650,R,ugm-3
04-01-2020,22:00,2.60205,R,ugm-3,43.30662,R,ugm-3,47.29637,R,ugm-3
04-01-2020,23:00,1.35307,R,ugm-3,29.17186,R,ugm-3,31.24653,R,ugm-3
04-01-2020,24:00,0.58980,R,ugm-3,18.87802,R,ugm-3,19.78236,R,ugm-3
05-01-2020,01:00,0.69411,R,ugm-3,23.11142,R,ugm-3,24.17571,R,ugm-3
05-01-2020,02:00,0.64784,R,ugm-3,24.32005,R,ugm-3,25.31339,R,ugm-3
05-01-2020,03:00,0.55529,R,ugm-3,20.37342,R,ugm-3,21.22485,R,ugm-3
05-01-2020,04:00,0.34706,R,ugm-3,8.16044,R,ugm-3,8.69259,R,ugm-3
05-01-2020,05:00,0.27765,R,ugm-3,18.39934,R,ugm-3,18.82506,R,ugm-3
05-01-2020,06:00,0.34706,R,ugm-3,6.66724,R,ugm-3,7.19938,R,ugm-3
05-01-2020,07:00,0.34706,R,ugm-3,5.49401,R,ugm-3,6.02615,R,ugm-3
05-01-2020,08:00,0.48588,R,ugm-3,9.70744,R,ugm-3,10.45244,R,ugm-3
05-01-2020,09:00,0.86764,R,ugm-3,14.66827,R,ugm-3,15.99863,R,ugm-3
05-01-2020,10:00,1.07588,R,ugm-3,14.98893,R,ugm-3,16.63858,R,ugm-3
05-01-2020,11:00,1.56175,R,ugm-3,13.33733,R,ugm-3,15.73199,R,ugm-3
05-01-2020,12:00,1.63116,R,ugm-3,12.00434,R,ugm-3,14.50543,R,ugm-3
05-01-2020,13:00,2.35998,R,ugm-3,14.67318,R,ugm-3,18.29177,R,ugm-3
05-01-2020,14:00,1.76999,R,ugm-3,12.64474,R,ugm-3,15.35869,R,ugm-3
05-01-2020,15:00,1.21470,R,ugm-3,10.61642,R,ugm-3,12.47893,R,ugm-3
05-01-2020,16:00,1.07588,R,ugm-3,12.05584,R,ugm-3,13.70549,R,ugm-3
05-01-2020,17:00,1.14529,R,ugm-3,19.30878,R,ugm-3,21.06486,R,ugm-3
05-01-2020,18:00,1.73528,R,ugm-3,24.27030,R,ugm-3,26.93103,R,ugm-3
05-01-2020,19:00,0.97176,R,ugm-3,16.26847,R,ugm-3,17.75848,R,ugm-3
05-01-2020,20:00,1.04117,R,ugm-3,15.73541,R,ugm-3,17.33185,R,ugm-3
05-01-2020,21:00,0.72882,R,ugm-3,16.48099,R,ugm-3,17.59849,R,ugm-3
05-01-2020,22:00,1.28411,R,ugm-3,14.50965,R,ugm-3,16.47859,R,ugm-3
05-01-2020,23:00,1.04117,R,ugm-3,13.49561,R,ugm-3,15.09204,R,ugm-3
05-01-2020,24:00,0.55529,R,ugm-3,9.65433,R,ugm-3,10.50577,R,ugm-3
06-01-2020,01:00,0.37032,R,ugm-3,12.37501,R,ugm-3,12.94282,R,ugm-3
06-01-2020,02:00,0.41661,R,ugm-3,6.97045,R,ugm-3,7.60924,R,ugm-3
06-01-2020,03:00,0.38189,R,ugm-3,5.01471,R,ugm-3,5.60026,R,ugm-3
06-01-2020,04:00,0.72906,R,ugm-3,4.26904,R,ugm-3,5.38692,R,ugm-3
06-01-2020,05:00,0.72906,R,ugm-3,2.93564,R,ugm-3,4.05352,R,ugm-3
06-01-2020,06:00,0.59019,R,ugm-3,4.53530,R,ugm-3,5.44025,R,ugm-3
06-01-2020,07:00,0.62491,R,ugm-3,6.61550,R,ugm-3,7.57369,R,ugm-3
06-01-2020,08:00,0.72906,R,ugm-3,10.98935,R,ugm-3,12.10723,R,ugm-3
06-01-2020,09:00,1.59699,R,ugm-3,16.11217,R,ugm-3,18.56086,R,ugm-3
06-01-2020,10:00,1.21510,R,ugm-3,12.64421,R,ugm-3,14.50734,R,ugm-3
06-01-2020,11:00,0.97208,R,ugm-3,9.87002,R,ugm-3,11.36053,R,ugm-3
06-01-2020,12:00,1.56228,R,ugm-3,13.33861,R,ugm-3,15.73407,R,ugm-3
06-01-2020,13:00,1.87473,R,ugm-3,12.75285,R,ugm-3,15.62739,R,ugm-3
06-01-2020,14:00,1.66643,R,ugm-3,14.93899,R,ugm-3,17.49415,R,ugm-3
06-01-2020,15:00,2.08303,R,ugm-3,17.44702,R,ugm-3,20.64096,R,ugm-3
06-01-2020,16:00,2.95097,R,ugm-3,22.46317,R,ugm-3,26.98792,R,ugm-3
06-01-2020,17:00,2.11775,R,ugm-3,31.63445,R,ugm-3,34.88162,R,ugm-3
06-01-2020,18:00,2.04832,R,ugm-3,34.99440,R,ugm-3,38.13511,R,ugm-3
06-01-2020,19:00,2.56908,R,ugm-3,39.63616,R,ugm-3,43.57536,R,ugm-3
06-01-2020,20:00,8.19327,R,ugm-3,54.69362,R,ugm-3,67.25646,R,ugm-3
06-01-2020,21:00,8.50572,R,ugm-3,47.12087,R,ugm-3,60.16279,R,ugm-3
06-01-2020,22:00,1.80530,R,ugm-3,24.85987,R,ugm-3,27.62795,R,ugm-3
06-01-2020,23:00,3.19399,R,ugm-3,36.70456,R,ugm-3,41.60193,R,ugm-3
06-01-2020,24:00,1.35397,R,ugm-3,15.20474,R,ugm-3,17.28080,R,ugm-3
07-01-2020,01:00,1.11132,R,ugm-3,11.52502,R,ugm-3,13.22903,R,ugm-3
07-01-2020,02:00,0.60197,R,ugm-3,12.16378,R,ugm-3,13.08678,R,ugm-3
07-01-2020,03:00,0.34729,R,ugm-3,9.65598,R,ugm-3,10.18848,R,ugm-3
07-01-2020,04:00,0.90295,R,ugm-3,10.88435,R,ugm-3,12.26886,R,ugm-3
07-01-2020,05:00,0.86822,R,ugm-3,9.81740,R,ugm-3,11.14866,R,ugm-3
07-01-2020,06:00,0.90295,R,ugm-3,13.07141,R,ugm-3,14.45591,R,ugm-3
07-01-2020,07:00,1.28497,R,ugm-3,18.78011,R,ugm-3,20.75037,R,ugm-3
07-01-2020,08:00,3.02141,R,ugm-3,35.96115,R,ugm-3,40.59391,R,ugm-3
07-01-2020,09:00,2.60466,R,ugm-3,26.51835,R,ugm-3,30.51211,R,ugm-3
07-01-2020,10:00,2.32683,R,ugm-3,25.82415,R,ugm-3,29.39191,R,ugm-3
07-01-2020,11:00,2.67412,R,ugm-3,19.79734,R,ugm-3,23.89760,R,ugm-3
07-01-2020,12:00,2.25738,R,ugm-3,21.34317,R,ugm-3,24.80443,R,ugm-3
07-01-2020,13:00,1.94482,R,ugm-3,22.40919,R,ugm-3,25.39120,R,ugm-3
07-01-2020,14:00,1.70171,R,ugm-3,20.00811,R,ugm-3,22.61737,R,ugm-3
07-01-2020,15:00,2.11846,R,ugm-3,20.06257,R,ugm-3,23.31083,R,ugm-3
07-01-2020,16:00,2.36156,R,ugm-3,17.55610,R,ugm-3,21.17711,R,ugm-3
07-01-2020,17:00,1.70171,R,ugm-3,20.70157,R,ugm-3,23.31083,R,ugm-3
07-01-2020,18:00,1.21551,R,ugm-3,15.47267,R,ugm-3,17.33643,R,ugm-3
07-01-2020,19:00,0.97241,R,ugm-3,14.56520,R,ugm-3,16.05620,R,ugm-3
07-01-2020,20:00,0.90295,R,ugm-3,11.73784,R,ugm-3,13.12234,R,ugm-3
07-01-2020,21:00,0.72931,R,ugm-3,10.56383,R,ugm-3,11.68208,R,ugm-3
07-01-2020,22:00,0.83349,R,ugm-3,6.45671,R,ugm-3,7.73471,R,ugm-3
07-01-2020,23:00,0.69458,R,ugm-3,7.09645,R,ugm-3,8.16146,R,ugm-3
07-01-2020,24:00,0.69458,R,ugm-3,3.09574,R,ugm-3,4.16074,R,ugm-3
08-01-2020,01:00,0.37057,R,ugm-3,6.04720,R,ugm-3,6.61539,R,ugm-3
08-01-2020,02:00,0.41689,R,ugm-3,5.69164,R,ugm-3,6.33085,R,ugm-3
08-01-2020,03:00,0.38215,R,ugm-3,5.17584,R,ugm-3,5.76179,R,ugm-3
08-01-2020,04:00,0.48637,R,ugm-3,4.16244,R,ugm-3,4.90819,R,ugm-3
08-01-2020,05:00,0.69481,R,ugm-3,3.25598,R,ugm-3,4.32134,R,ugm-3
08-01-2020,06:00,1.11169,R,ugm-3,8.37856,R,ugm-3,10.08313,R,ugm-3
08-01-2020,07:00,0.86851,R,ugm-3,17.28742,R,ugm-3,18.61911,R,ugm-3
08-01-2020,08:00,3.68249,R,ugm-3,32.33872,R,ugm-3,37.98512,R,ugm-3
08-01-2020,09:00,2.98768,R,ugm-3,20.54676,R,ugm-3,25.12780,R,ugm-3
08-01-2020,10:00,3.78671,R,ugm-3,25.56353,R,ugm-3,31.36974,R,ugm-3
08-01-2020,11:00,4.72470,R,ugm-3,28.60669,R,ugm-3,35.85113,R,ugm-3
08-01-2020,12:00,4.96788,R,ugm-3,24.33927,R,ugm-3,31.95658,R,ugm-3
08-01-2020,13:00,5.62795,R,ugm-3,29.51577,R,ugm-3,38.14517,R,ugm-3
08-01-2020,14:00,6.07958,R,ugm-3,33.35803,R,ugm-3,42.67991,R,ugm-3
08-01-2020,15:00,7.08705,R,ugm-3,38.85544,R,ugm-3,49.72210,R,ugm-3
08-01-2020,16:00,3.57827,R,ugm-3,36.17967,R,ugm-3,41.66626,R,ugm-3
08-01-2020,17:00,6.73965,R,ugm-3,58.75413,R,ugm-3,69.08811,R,ugm-3
08-01-2020,18:00,6.94809,R,ugm-3,58.64792,R,ugm-3,69.30151,R,ugm-3
08-01-2020,19:00,6.46172,R,ugm-3,60.56737,R,ugm-3,70.47521,R,ugm-3
08-01-2020,20:00,4.79418,R,ugm-3,50.80041,R,ugm-3,58.15138,R,ugm-3
08-01-2020,21:00,0.97273,R,ugm-3,14.03332,R,ugm-3,15.52482,R,ugm-3
08-01-2020,22:00,2.74450,R,ugm-3,23.53378,R,ugm-3,27.74194,R,ugm-3
08-01-2020,23:00,1.25066,R,ugm-3,17.23497,R,ugm-3,19.15261,R,ugm-3
08-01-2020,24:00,0.45163,R,ugm-3,8.59040,R,ugm-3,9.28288,R,ugm-3
09-01-2020,01:00,0.32435,R,ugm-3,5.26522,R,ugm-3,5.76255,R,ugm-3
09-01-2020,02:00,0.50970,R,ugm-3,6.83073,R,ugm-3,7.61226,R,ugm-3
09-01-2020,03:00,0.52128,R,ugm-3,11.47281,R,ugm-3,12.27209,R,ugm-3
09-01-2020,04:00,0.76455,R,ugm-3,14.08780,R,ugm-3,15.26008,R,ugm-3
09-01-2020,05:00,0.72979,R,ugm-3,4.85698,R,ugm-3,5.97598,R,ugm-3
09-01-2020,06:00,0.62554,R,ugm-3,4.80341,R,ugm-3,5.76255,R,ugm-3
09-01-2020,07:00,0.76455,R,ugm-3,9.07225,R,ugm-3,10.24453,R,ugm-3
09-01-2020,08:00,1.11207,R,ugm-3,16.43621,R,ugm-3,18.14136,R,ugm-3
09-01-2020,09:00,1.77236,R,ugm-3,13.07608,R,ugm-3,15.79365,R,ugm-3
09-01-2020,10:00,2.05037,R,ugm-3,14.67736,R,ugm-3,17.82122,R,ugm-3
09-01-2020,11:00,1.98087,R,ugm-3,13.50336,R,ugm-3,16.54065,R,ugm-3
09-01-2020,12:00,3.89223,R,ugm-3,13.29385,R,ugm-3,19.26185,R,ugm-3
09-01-2020,13:00,4.03124,R,ugm-3,12.60050,R,ugm-3,18.78164,R,ugm-3
09-01-2020,14:00,4.23975,R,ugm-3,16.17584,R,ugm-3,22.67670,R,ugm-3
09-01-2020,15:00,3.40570,R,ugm-3,18.20169,R,ugm-3,23.42369,R,ugm-3
09-01-2020,16:00,3.92698,R,ugm-3,21.40418,R,ugm-3,27.42546,R,ugm-3
09-01-2020,17:00,3.44045,R,ugm-3,24.55124,R,ugm-3,29.82653,R,ugm-3
09-01-2020,18:00,3.85748,R,ugm-3,27.11323,R,ugm-3,33.02794,R,ugm-3
09-01-2020,19:00,3.92698,R,ugm-3,25.03245,R,ugm-3,31.05374,R,ugm-3
09-01-2020,20:00,1.84186,R,ugm-3,16.65114,R,ugm-3,19.47528,R,ugm-3
09-01-2020,21:00,1.25107,R,ugm-3,14.99586,R,ugm-3,16.91415,R,ugm-3
09-01-2020,22:00,1.84186,R,ugm-3,17.39813,R,ugm-3,20.22228,R,ugm-3
09-01-2020,23:00,1.42483,R,ugm-3,17.23721,R,ugm-3,19.42192,R,ugm-3
09-01-2020,24:00,1.35533,R,ugm-3,25.29396,R,ugm-3,27.37211,R,ugm-3
10-01-2020,01:00,0.74163,R,ugm-3,21.48918,R,ugm-3,22.62633,R,ugm-3
10-01-2020,02:00,0.41716,R,ugm-3,10.46007,R,ugm-3,11.09971,R,ugm-3
10-01-2020,03:00,0.55622,R,ugm-3,4.10999,R,ugm-3,4.96285,R,ugm-3
10-01-2020,04:00,0.38240,R,ugm-3,2.72223,R,ugm-3,3.30857,R,ugm-3
10-01-2020,05:00,0.45193,R,ugm-3,4.43000,R,ugm-3,5.12294,R,ugm-3
10-01-2020,06:00,1.87724,R,ugm-3,10.62269,R,ugm-3,13.50109,R,ugm-3
10-01-2020,07:00,3.65018,R,ugm-3,23.21968,R,ugm-3,28.81655,R,ugm-3
10-01-2020,08:00,18.00757,R,ugm-3,54.99621,R,ugm-3,82.60743,R,ugm-3
10-01-2020,09:00,70.63974,R,ugm-3,78.24769,R,ugm-3,186.56045,R,ugm-3
10-01-2020,10:00,23.88263,R,ugm-3,57.40780,R,ugm-3,94.02732,R,ugm-3
10-01-2020,11:00,16.16510,R,ugm-3,41.33183,R,ugm-3,66.11796,R,ugm-3
10-01-2020,12:00,7.71753,R,ugm-3,30.75107,R,ugm-3,42.58445,R,ugm-3
10-01-2020,13:00,7.71753,R,ugm-3,29.47033,R,ugm-3,41.30372,R,ugm-3
10-01-2020,14:00,6.39651,R,ugm-3,26.15947,R,ugm-3,35.96732,R,ugm-3
10-01-2020,15:00,3.92829,R,ugm-3,20.39187,R,ugm-3,26.41517,R,ugm-3
10-01-2020,16:00,4.90167,R,ugm-3,33.78792,R,ugm-3,41.30372,R,ugm-3
10-01-2020,17:00,10.60291,R,ugm-3,56.90443,R,ugm-3,73.16201,R,ugm-3
10-01-2020,18:00,7.50895,R,ugm-3,52.79003,R,ugm-3,64.30359,R,ugm-3
10-01-2020,19:00,6.25746,R,ugm-3,55.34932,R,ugm-3,64.94395,R,ugm-3
10-01-2020,20:00,3.78924,R,ugm-3,44.99242,R,ugm-3,50.80250,R,ugm-3
10-01-2020,21:00,1.49484,R,ugm-3,33.62190,R,ugm-3,35.91395,R,ugm-3
10-01-2020,22:00,1.18196,R,ugm-3,25.83022,R,ugm-3,27.64254,R,ugm-3
10-01-2020,23:00,0.90386,R,ugm-3,18.25205,R,ugm-3,19.63794,R,ugm-3
10-01-2020,24:00,0.62575,R,ugm-3,10.56716,R,ugm-3,11.52662,R,ugm-3
11-01-2020,01:00,0.41730,R,ugm-3,9.60738,R,ugm-3,10.24723,R,ugm-3
11-01-2020,02:00,0.41730,R,ugm-3,4.98189,R,ugm-3,5.62175,R,ugm-3
11-01-2020,03:00,0.38253,R,ugm-3,3.73652,R,ugm-3,4.32305,R,ugm-3
11-01-2020,04:00,0.27820,R,ugm-3,4.27008,R,ugm-3,4.69665,R,ugm-3
11-01-2020,05:00,0.41730,R,ugm-3,7.57928,R,ugm-3,8.21914,R,ugm-3
11-01-2020,06:00,0.45208,R,ugm-3,3.57650,R,ugm-3,4.26968,R,ugm-3
11-01-2020,07:00,0.48685,R,ugm-3,4.00352,R,ugm-3,4.75002,R,ugm-3
11-01-2020,08:00,0.62596,R,ugm-3,5.49811,R,ugm-3,6.45789,R,ugm-3
11-01-2020,09:00,0.69551,R,ugm-3,6.77911,R,ugm-3,7.84554,R,ugm-3
11-01-2020,10:00,0.93893,R,ugm-3,8.22048,R,ugm-3,9.66015,R,ugm-3
11-01-2020,11:00,1.46056,R,ugm-3,10.03584,R,ugm-3,12.27533,R,ugm-3
11-01-2020,12:00,1.46056,R,ugm-3,10.51618,R,ugm-3,12.75567,R,ugm-3
11-01-2020,13:00,1.56489,R,ugm-3,9.23542,R,ugm-3,11.63488,R,ugm-3
11-01-2020,14:00,1.70399,R,ugm-3,10.67664,R,ugm-3,13.28938,R,ugm-3
11-01-2020,15:00,1.63444,R,ugm-3,10.03609,R,ugm-3,12.54219,R,ugm-3
11-01-2020,16:00,1.07803,R,ugm-3,10.88923,R,ugm-3,12.54219,R,ugm-3
11-01-2020,17:00,0.83461,R,ugm-3,10.62203,R,ugm-3,11.90174,R,ugm-3
11-01-2020,18:00,1.00848,R,ugm-3,10.56890,R,ugm-3,12.11522,R,ugm-3
11-01-2020,19:00,1.00848,R,ugm-3,9.44811,R,ugm-3,10.99443,R,ugm-3
11-01-2020,20:00,0.83461,R,ugm-3,9.60798,R,ugm-3,10.88769,R,ugm-3
11-01-2020,21:00,0.69551,R,ugm-3,7.95328,R,ugm-3,9.01970,R,ugm-3
11-01-2020,22:00,0.69551,R,ugm-3,7.09934,R,ugm-3,8.16577,R,ugm-3
11-01-2020,23:00,0.52163,R,ugm-3,9.02045,R,ugm-3,9.82027,R,ugm-3
11-01-2020,24:00,0.73028,R,ugm-3,7.63310,R,ugm-3,8.75285,R,ugm-3
12-01-2020,01:00,0.51021,R,ugm-3,11.74374,R,ugm-3,12.52605,R,ugm-3
12-01-2020,02:00,0.55659,R,ugm-3,8.96814,R,ugm-3,9.82156,R,ugm-3
12-01-2020,03:00,0.31308,R,ugm-3,10.35569,R,ugm-3,10.83575,R,ugm-3
12-01-2020,04:00,0.24351,R,ugm-3,5.07119,R,ugm-3,5.44456,R,ugm-3
12-01-2020,05:00,0.66095,R,ugm-3,7.68718,R,ugm-3,8.70062,R,ugm-3
12-01-2020,06:00,0.34787,R,ugm-3,5.01793,R,ugm-3,5.55132,R,ugm-3
12-01-2020,07:00,0.55659,R,ugm-3,13.66541,R,ugm-3,14.51883,R,ugm-3
12-01-2020,08:00,0.38266,R,ugm-3,13.13143,R,ugm-3,13.71816,R,ugm-3
12-01-2020,09:00,0.38266,R,ugm-3,4.96459,R,ugm-3,5.55132,R,ugm-3
12-01-2020,10:00,1.14797,R,ugm-3,7.58097,R,ugm-3,9.34116,R,ugm-3
12-01-2020,11:00,1.84370,R,ugm-3,11.58510,R,ugm-3,14.41207,R,ugm-3
12-01-2020,12:00,1.63498,R,ugm-3,8.75583,R,ugm-3,11.26277,R,ugm-3
12-01-2020,13:00,1.94806,R,ugm-3,6.62106,R,ugm-3,9.60805,R,ugm-3
12-01-2020,14:00,2.67859,R,ugm-3,10.03807,R,ugm-3,14.14519,R,ugm-3
12-01-2020,15:00,1.80892,R,ugm-3,9.02292,R,ugm-3,11.79655,R,ugm-3
12-01-2020,16:00,1.80892,R,ugm-3,14.14721,R,ugm-3,16.92084,R,ugm-3
12-01-2020,17:00,1.53062,R,ugm-3,21.99347,R,ugm-3,24.34039,R,ugm-3
12-01-2020,18:00,2.71338,R,ugm-3,34.85891,R,ugm-3,39.01936,R,ugm-3
12-01-2020,19:00,1.35669,R,ugm-3,26.42366,R,ugm-3,28.50388,R,ugm-3
12-01-2020,20:00,2.81774,R,ugm-3,38.00833,R,ugm-3,42.32880,R,ugm-3
12-01-2020,21:00,1.63498,R,ugm-3,32.34893,R,ugm-3,34.85587,R,ugm-3
12-01-2020,22:00,1.21754,R,ugm-3,25.62283,R,ugm-3,27.48970,R,ugm-3
12-01-2020,23:00,0.90446,R,ugm-3,20.01778,R,ugm-3,21.40460,R,ugm-3
12-01-2020,24:00,0.41744,R,ugm-3,14.83957,R,ugm-3,15.47964,R,ugm-3
13-01-2020,01:00,1.62393,R,ugm-3,12.24430,R,ugm-3,14.73429,R,ugm-3
13-01-2020,02:00,1.06715,R,ugm-3,8.75602,R,ugm-3,10.39230,R,ugm-3
13-01-2020,03:00,0.90476,R,ugm-3,8.32881,R,ugm-3,9.71609,R,ugm-3
13-01-2020,04:00,1.04395,R,ugm-3,7.36799,R,ugm-3,8.96870,R,ugm-3
13-01-2020,05:00,0.90476,R,ugm-3,7.84834,R,ugm-3,9.23562,R,ugm-3
13-01-2020,06:00,1.35714,R,ugm-3,11.85259,R,ugm-3,13.93351,R,ugm-3
13-01-2020,07:00,1.25274,R,ugm-3,18.89934,R,ugm-3,20.82019,R,ugm-3
13-01-2020,08:00,2.08791,R,ugm-3,26.48070,R,ugm-3,29.68211,R,ugm-3
13-01-2020,09:00,3.93223,R,ugm-3,27.71005,R,ugm-3,33.73938,R,ugm-3
13-01-2020,10:00,5.28937,R,ugm-3,24.56143,R,ugm-3,32.67168,R,ugm-3
13-01-2020,11:00,2.85347,R,ugm-3,15.75091,R,ugm-3,20.12618,R,ugm-3
13-01-2020,12:00,2.08791,R,ugm-3,12.97427,R,ugm-3,16.17568,R,ugm-3
13-01-2020,13:00,1.53113,R,ugm-3,9.87748,R,ugm-3,12.22519,R,ugm-3
13-01-2020,14:00,1.35714,R,ugm-3,8.75626,R,ugm-3,10.83717,R,ugm-3
13-01-2020,15:00,1.49633,R,ugm-3,7.52851,R,ugm-3,9.82286,R,ugm-3
13-01-2020,16:00,1.77472,R,ugm-3,8.59644,R,ugm-3,11.31764,R,ugm-3
13-01-2020,17:00,1.18315,R,ugm-3,7.95534,R,ugm-3,9.76947,R,ugm-3
13-01-2020,18:00,1.18315,R,ugm-3,7.10118,R,ugm-3,8.91531,R,ugm-3
13-01-2020,19:00,1.21795,R,ugm-3,7.15459,R,ugm-3,9.02208,R,ugm-3
13-01-2020,20:00,0.86996,R,ugm-3,10.94465,R,ugm-3,12.27857,R,ugm-3
13-01-2020,21:00,1.53113,R,ugm-3,14.94907,R,ugm-3,17.29677,R,ugm-3
13-01-2020,22:00,0.48718,R,ugm-3,12.06543,R,ugm-3,12.81242,R,ugm-3
13-01-2020,23:00,0.52198,R,ugm-3,11.37145,R,ugm-3,12.17180,R,ugm-3
13-01-2020,24:00,0.34798,R,ugm-3,9.60960,R,ugm-3,10.14317,R,ugm-3
14-01-2020,01:00,0.51055,R,ugm-3,7.83110,R,ugm-3,8.61393,R,ugm-3
14-01-2020,02:00,,,,,,,,,
14-01-2020,03:00,0.41772,R,ugm-3,8.27599,R,ugm-3,8.91649,R,ugm-3
14-01-2020,04:00,0.45253,R,ugm-3,6.46068,R,ugm-3,7.15455,R,ugm-3
14-01-2020,05:00,0.52215,R,ugm-3,4.85895,R,ugm-3,5.65957,R,ugm-3
14-01-2020,06:00,0.52215,R,ugm-3,8.06248,R,ugm-3,8.86310,R,ugm-3
14-01-2020,07:00,0.59177,R,ugm-3,13.50851,R,ugm-3,14.41588,R,ugm-3
14-01-2020,08:00,1.04430,R,ugm-3,19.27508,R,ugm-3,20.87632,R,ugm-3
14-01-2020,09:00,2.08860,R,ugm-3,22.15878,R,ugm-3,25.36127,R,ugm-3
14-01-2020,10:00,1.77531,R,ugm-3,19.11527,R,ugm-3,21.83738,R,ugm-3
14-01-2020,11:00,1.49683,R,ugm-3,15.53786,R,ugm-3,17.83297,R,ugm-3
14-01-2020,12:00,2.81962,R,ugm-3,17.94117,R,ugm-3,22.26452,R,ugm-3
14-01-2020,13:00,1.98417,R,ugm-3,14.73722,R,ugm-3,17.77958,R,ugm-3
14-01-2020,14:00,1.46202,R,ugm-3,11.53343,R,ugm-3,13.77517,R,ugm-3
14-01-2020,15:00,1.14873,R,ugm-3,8.48992,R,ugm-3,10.25129,R,ugm-3
14-01-2020,16:00,1.74050,R,ugm-3,11.64036,R,ugm-3,14.30909,R,ugm-3
14-01-2020,17:00,1.67088,R,ugm-3,13.77601,R,ugm-3,16.33799,R,ugm-3
14-01-2020,18:00,1.28797,R,ugm-3,16.28525,R,ugm-3,18.26011,R,ugm-3
14-01-2020,19:00,1.04430,R,ugm-3,14.57658,R,ugm-3,16.17782,R,ugm-3
14-01-2020,20:00,1.14873,R,ugm-3,10.99936,R,ugm-3,12.76072,R,ugm-3
14-01-2020,21:00,1.21835,R,ugm-3,12.60116,R,ugm-3,14.46927,R,ugm-3
14-01-2020,22:00,1.04430,R,ugm-3,7.79578,R,ugm-3,9.39702,R,ugm-3
14-01-2020,23:00,0.73101,R,ugm-3,8.54311,R,ugm-3,9.66398,R,ugm-3
14-01-2020,24:00,0.55696,R,ugm-3,5.28610,R,ugm-3,6.14010,R,ugm-3
15-01-2020,01:00,0.41786,R,ugm-3,11.81910,R,ugm-3,12.45981,R,ugm-3
15-01-2020,02:00,0.27857,R,ugm-3,10.39509,R,ugm-3,10.82223,R,ugm-3
15-01-2020,03:00,0.38304,R,ugm-3,9.45173,R,ugm-3,10.03905,R,ugm-3
15-01-2020,04:00,0.24375,R,ugm-3,11.90806,R,ugm-3,12.28181,R,ugm-3
15-01-2020,05:00,0.38304,R,ugm-3,12.86928,R,ugm-3,13.45659,R,ugm-3
15-01-2020,06:00,0.83572,R,ugm-3,15.21893,R,ugm-3,16.50034,R,ugm-3
15-01-2020,07:00,0.87054,R,ugm-3,16.98111,R,ugm-3,18.31592,R,ugm-3
15-01-2020,08:00,1.56698,R,ugm-3,31.61261,R,ugm-3,34.01527,R,ugm-3
15-01-2020,09:00,4.10896,R,ugm-3,45.39009,R,ugm-3,51.69040,R,ugm-3
15-01-2020,10:00,3.79556,R,ugm-3,40.90450,R,ugm-3,46.72428,R,ugm-3
15-01-2020,11:00,4.03931,R,ugm-3,31.66649,R,ugm-3,37.86001,R,ugm-3
15-01-2020,12:00,5.15361,R,ugm-3,21.78785,R,ugm-3,29.68994,R,ugm-3
15-01-2020,13:00,2.85538,R,ugm-3,11.64157,R,ugm-3,16.01975,R,ugm-3
15-01-2020,14:00,2.36787,R,ugm-3,9.66571,R,ugm-3,13.29639,R,ugm-3
15-01-2020,15:00,2.05448,R,ugm-3,9.93264,R,ugm-3,13.08280,R,ugm-3
15-01-2020,16:00,2.54198,R,ugm-3,20.23878,R,ugm-3,24.13643,R,ugm-3
15-01-2020,17:00,2.15894,R,ugm-3,32.68071,R,ugm-3,35.99104,R,ugm-3
15-01-2020,18:00,1.95001,R,ugm-3,33.48166,R,ugm-3,36.47164,R,ugm-3
15-01-2020,19:00,1.88037,R,ugm-3,35.35062,R,ugm-3,38.23381,R,ugm-3
15-01-2020,20:00,1.49733,R,ugm-3,25.20470,R,ugm-3,27.50058,R,ugm-3
15-01-2020,21:00,1.32322,R,ugm-3,25.63186,R,ugm-3,27.66077,R,ugm-3